Location: Northcutt
(34.7304°N, 84.4305°W)
Time: 08:47:53
(UTC+00:00)

S-56A Canister/Altair - Pass Details

Date: 12 October 2022
Orbit: 638 x 2494 km, 38.9° (Epoch: 08 December)

Event Time Altitude Azimuth Distance (km) Brightness Sun altitude
Rises 10:36:00 0° 289° (WNW) 5,075 - -14.1°
Reaches altitude 10° 10:40:17 10° 280° (W) 3,746 - -13.3°
Exits shadow 10:42:23 16° 272° (W) 3,131 9.9 -12.8°
Maximum altitude 10:47:44 29° 226° (SW) 2,041 9.3 -11.7°
Drops below altitude 10° 10:53:10 10° 168° (SSE) 2,659 10.5 -10.6°
Sets 10:55:41 0° 156° (SSE) 3,404 11.2 -10.1°
